Weather in Zhumadian

China     32°58′55″N   114°01′20″E
temp.,
°C
wind,
m/s
gust,
m/s
humid.,
%
clouds,
%
prec.,
mm/h
press.,
hPa
HPBL,
m
5 december, sun
sun523:00+8sse2234100 0.0 102715
02:00+8s1135100 0.0 102610
05:00+7ssw1136100 0.0 102610
08:00+7ssw113938 0.0 102710
11:00+14ssw12280 0.0 1027422
14:00+17sw23260 0.0 10231083
17:00+13wsw11360 0.0 102310
20:00+11ssw22390 0.0 102410
6 december, mon
mon623:00+9ssw22400 0.0 102410
02:00+8sw22440 0.0 102412
05:00+8wsw22470 0.0 102417
08:00+8wsw33510 0.0 102636
11:00+14nnw78280 0.0 1028801
14:00+15nne810235 0.0 10271223
17:00+12nne611335 0.0 1029296
20:00+8nne512405 0.0 1031412
7 december, tue
tue723:00+5n41046100 0.0 1033272
02:00+4nnw3854100 0.0 1033201
05:00+2n36710 0.0 1033143
08:00+2n25790 0.0 1034172
11:00+8ne34529 0.0 1034724
14:00+11ene454280 0.0 10301083
17:00+9ne3647100 0.0 1030135
20:00+8ne3747100 0.0 1031186
8 december, wed
wed823:00+7ne2549100 0.0 1031126
02:00+5nne2353100 0.0 103143
05:00+5nne225592 0.0 103037
08:00+5n235896 0.0 103287
11:00+10ne225597 0.0 1031618
14:00+12nne225069 0.0 10291093
17:00+11n115892 0.0 102811
20:00+9nnw226377 0.0 102913
9 december, thu
thu923:00+8nw226843 0.0 102910
02:00+7nw11710 0.0 102810
05:00+6w11750 0.0 102810
08:00+6sw11720 0.0 102811
11:00+13sw22450 0.0 1029517
14:00+16wsw12370 0.0 1026822
17:00+13ene11460 0.0 102610
20:00+10se22540 0.0 102710